Météo par heure à Alifanov

Ce jour, 31 Octobre, Samedi

Heure Température Précipitation Vent Pression Humidité
00:00 +15°C° 0.1 mm 2 m/s 756 mmHg 93%
01:00 +15°C° 0.4 mm 2 m/s 756 mmHg 93%
02:00 +14°C° 0.4 mm 2 m/s 756 mmHg 94%
03:00 +14°C° 0 mm 2 m/s 756 mmHg 93%
04:00 +14°C° 0.2 mm 2 m/s 756 mmHg 94%
05:00 +14°C° 0.2 mm 2 m/s 755 mmHg 94%
06:00 +13°C° 0.2 mm 1 m/s 755 mmHg 95%
07:00 +14°C° 0.1 mm 2 m/s 755 mmHg 92%
08:00 +15°C° 0.1 mm 2 m/s 755 mmHg 89%
09:00 +16°C° 0 mm 3 m/s 755 mmHg 85%
10:00 +16°C° 0.6 mm 3 m/s 755 mmHg 85%
11:00 +16°C° 0.6 mm 3 m/s 755 mmHg 86%
12:00 +15°C° 0.6 mm 4 m/s 755 mmHg 86%
13:00 +15°C° 0.9 mm 4 m/s 755 mmHg 86%
14:00 +15°C° 0.9 mm 5 m/s 755 mmHg 86%
15:00 +15°C° 0.9 mm 5 m/s 755 mmHg 85%
16:00 +14°C° 0.1 mm 5 m/s 755 mmHg 85%
17:00 +14°C° 0.1 mm 5 m/s 755 mmHg 84%
18:00 +14°C° 0.1 mm 5 m/s 755 mmHg 83%
19:00 +14°C° 0.2 mm 5 m/s 755 mmHg 83%
20:00 +14°C° 0.2 mm 5 m/s 755 mmHg 83%
21:00 +14°C° 0.2 mm 5 m/s 755 mmHg 83%
22:00 +14°C° 0 mm 6 m/s 755 mmHg 83%
23:00 +14°C° 0 mm 6 m/s 755 mmHg 84%

Demain, 1 Novembre, Dimanche

Heure Température Précipitation Vent Pression Humidité
00:00 +14°C° 0 mm 7 m/s 755 mmHg 85%
01:00 +14°C° 0.3 mm 6 m/s 755 mmHg 86%
02:00 +13°C° 0.3 mm 5 m/s 756 mmHg 87%
03:00 +12°C° 0.3 mm 4 m/s 756 mmHg 88%
04:00 +12°C° 0 mm 3 m/s 756 mmHg 89%
05:00 +11°C° 0 mm 3 m/s 757 mmHg 91%
06:00 +10°C° 0 mm 2 m/s 757 mmHg 93%
07:00 +12°C° 0 mm 2 m/s 757 mmHg 89%
08:00 +12°C° 0 mm 2 m/s 757 mmHg 86%
09:00 +13°C° 0 mm 2 m/s 758 mmHg 83%
10:00 +13°C° 0 mm 3 m/s 758 mmHg 76%
11:00 +14°C° 0 mm 3 m/s 758 mmHg 68%
12:00 +17°C° 0 mm 3 m/s 758 mmHg 61%
13:00 +17°C° 0 mm 3 m/s 758 mmHg 59%
14:00 +18°C° 0 mm 3 m/s 757 mmHg 57%
15:00 +18°C° 0 mm 3 m/s 757 mmHg 55%
16:00 +17°C° 0 mm 3 m/s 757 mmHg 62%
17:00 +16°C° 0 mm 3 m/s 757 mmHg 69%
18:00 +14°C° 0 mm 3 m/s 757 mmHg 76%
19:00 +14°C° 0 mm 4 m/s 757 mmHg 76%
20:00 +14°C° 0 mm 5 m/s 757 mmHg 76%
21:00 +14°C° 0 mm 5 m/s 757 mmHg 77%
22:00 +14°C° 0 mm 6 m/s 757 mmHg 77%
23:00 +14°C° 0 mm 6 m/s 757 mmHg 78%

Après-demain, 2 Novembre, Lundi

Heure Température Précipitation Vent Pression Humidité
00:00 +13°C° 0 mm 6 m/s 757 mmHg 79%
01:00 +13°C° 1.5 mm 6 m/s 757 mmHg 82%
02:00 +13°C° 1.5 mm 6 m/s 757 mmHg 85%
03:00 +11°C° 1.5 mm 6 m/s 758 mmHg 87%
04:00 +11°C° 0.3 mm 6 m/s 758 mmHg 86%
05:00 +13°C° 0.3 mm 6 m/s 758 mmHg 84%
06:00 +13°C° 0.3 mm 5 m/s 758 mmHg 83%
07:00 +13°C° 0.2 mm 6 m/s 758 mmHg 81%
08:00 +13°C° 0.2 mm 6 m/s 759 mmHg 79%
09:00 +13°C° 0.2 mm 6 m/s 759 mmHg 77%
10:00 +14°C° 0 mm 6 m/s 759 mmHg 71%
11:00 +15°C° 0 mm 6 m/s 759 mmHg 64%
12:00 +16°C° 0 mm 7 m/s 759 mmHg 58%
13:00 +16°C° 0 mm 6 m/s 759 mmHg 59%
14:00 +16°C° 0 mm 6 m/s 758 mmHg 60%
15:00 +16°C° 0 mm 6 m/s 758 mmHg 61%
16:00 +15°C° 0.1 mm 5 m/s 759 mmHg 66%
17:00 +14°C° 0.1 mm 4 m/s 759 mmHg 70%
18:00 +13°C° 0.1 mm 4 m/s 759 mmHg 75%
19:00 +12°C° 0 mm 3 m/s 759 mmHg 77%
20:00 +12°C° 0 mm 3 m/s 759 mmHg 80%
21:00 +12°C° 0 mm 3 m/s 760 mmHg 82%
22:00 +12°C° 0 mm 3 m/s 760 mmHg 82%
23:00 +12°C° 0 mm 3 m/s 760 mmHg 82%

3 Novembre, Mardi

Heure Température Précipitation Vent Pression Humidité
00:00 +12°C° 0 mm 4 m/s 760 mmHg 82%
01:00 +11°C° 0 mm 4 m/s 760 mmHg 85%
02:00 +11°C° 0 mm 3 m/s 760 mmHg 88%
03:00 +10°C° 0 mm 3 m/s 760 mmHg 91%
04:00 +10°C° 0 mm 3 m/s 760 mmHg 92%
05:00 +10°C° 0 mm 2 m/s 760 mmHg 92%
06:00 +10°C° 0 mm 2 m/s 761 mmHg 93%
07:00 +11°C° 0.1 mm 3 m/s 761 mmHg 90%
08:00 +11°C° 0.1 mm 3 m/s 761 mmHg 87%
09:00 +12°C° 0.1 mm 4 m/s 761 mmHg 85%
10:00 +13°C° 0 mm 4 m/s 761 mmHg 78%
11:00 +14°C° 0 mm 4 m/s 762 mmHg 72%
12:00 +15°C° 0 mm 5 m/s 762 mmHg 65%
13:00 +15°C° 0 mm 4 m/s 762 mmHg 63%
14:00 +17°C° 0 mm 4 m/s 762 mmHg 60%
15:00 +17°C° 0 mm 4 m/s 762 mmHg 58%
16:00 +16°C° 0 mm 3 m/s 762 mmHg 63%
17:00 +14°C° 0 mm 3 m/s 762 mmHg 67%
18:00 +13°C° 0 mm 2 m/s 762 mmHg 72%
19:00 +13°C° 0 mm 2 m/s 762 mmHg 73%
20:00 +13°C° 0 mm 2 m/s 762 mmHg 75%
21:00 +13°C° 0 mm 2 m/s 763 mmHg 76%
22:00 +13°C° 0.1 mm 2 m/s 763 mmHg 79%
23:00 +12°C° 0.1 mm 2 m/s 763 mmHg 81%

4 Novembre, Mercredi

Heure Température Précipitation Vent Pression Humidité
00:00 +12°C° 0.1 mm 2 m/s 763 mmHg 84%
01:00 +12°C° 0.2 mm 2 m/s 763 mmHg 86%
02:00 +12°C° 0.2 mm 2 m/s 763 mmHg 88%
03:00 +12°C° 0.2 mm 2 m/s 763 mmHg 90%
04:00 +12°C° 0.1 mm 3 m/s 763 mmHg 89%
05:00 +12°C° 0.1 mm 3 m/s 763 mmHg 88%
06:00 +12°C° 0.1 mm 4 m/s 763 mmHg 86%
07:00 +12°C° 0 mm 4 m/s 763 mmHg 84%
08:00 +13°C° 0 mm 5 m/s 763 mmHg 81%
09:00 +13°C° 0 mm 5 m/s 764 mmHg 78%
10:00 +13°C° 0.2 mm 5 m/s 764 mmHg 76%
11:00 +13°C° 0.2 mm 5 m/s 764 mmHg 73%
12:00 +13°C° 0.2 mm 5 m/s 764 mmHg 71%
13:00 +14°C° 0.1 mm 4 m/s 764 mmHg 68%
14:00 +14°C° 0.1 mm 4 m/s 764 mmHg 65%
15:00 +15°C° 0.1 mm 4 m/s 764 mmHg 62%
16:00 +14°C° 0 mm 3 m/s 764 mmHg 64%
17:00 +13°C° 0 mm 3 m/s 764 mmHg 66%
18:00 +13°C° 0 mm 3 m/s 764 mmHg 68%
19:00 +13°C° 0 mm 3 m/s 764 mmHg 68%
20:00 +13°C° 0 mm 4 m/s 764 mmHg 68%
21:00 +13°C° 0 mm 4 m/s 765 mmHg 68%
22:00 +12°C° 0 mm 4 m/s 765 mmHg 69%
23:00 +12°C° 0 mm 3 m/s 765 mmHg 69%

5 Novembre, Jeudi

Heure Température Précipitation Vent Pression Humidité
00:00 +12°C° 0 mm 3 m/s 765 mmHg 70%
01:00 +11°C° 0 mm 3 m/s 765 mmHg 72%
02:00 +10°C° 0 mm 3 m/s 765 mmHg 74%
03:00 +10°C° 0 mm 3 m/s 765 mmHg 76%
04:00 +9°C° 0 mm 3 m/s 765 mmHg 77%
05:00 +9°C° 0 mm 3 m/s 765 mmHg 78%
06:00 +8°C° 0 mm 3 m/s 765 mmHg 80%
07:00 +9°C° 0 mm 3 m/s 765 mmHg 75%
08:00 +10°C° 0 mm 4 m/s 765 mmHg 70%
09:00 +9°C° 0 mm 5 m/s 765 mmHg 66%
10:00 +11°C° 0 mm 4 m/s 765 mmHg 60%
11:00 +12°C° 0 mm 4 m/s 765 mmHg 55%
12:00 +14°C° 0 mm 4 m/s 765 mmHg 50%
13:00 +14°C° 0 mm 4 m/s 764 mmHg 49%
14:00 +14°C° 0 mm 4 m/s 764 mmHg 48%
15:00 +15°C° 0 mm 4 m/s 764 mmHg 47%
16:00 +14°C° 0 mm 4 m/s 764 mmHg 52%
17:00 +13°C° 0 mm 4 m/s 764 mmHg 57%
18:00 +11°C° 0 mm 3 m/s 764 mmHg 61%
19:00 +11°C° 0 mm 3 m/s 764 mmHg 63%
20:00 +11°C° 0 mm 3 m/s 764 mmHg 65%
21:00 +11°C° 0 mm 3 m/s 764 mmHg 67%
22:00 +10°C° 0 mm 3 m/s 764 mmHg 69%
23:00 +10°C° 0 mm 3 m/s 764 mmHg 71%
Voir plus

Nous avons besoin de votre consentement

Meteoprog et ses fournisseurs de services peuvent stocker et accéder à des données personnelles telles que des cookies, des identifiants d'appareils ou d'autres technologies similaires sur votre appareil et traiter ces données pour personnaliser le contenu et les publicités, ainsi que pour fournir des fonctionnalités de médias sociaux et analyser le trafic.

  • Stocker et/ou accéder à des informations sur votre appareil

    Des cookies, des identifiants d'appareils ou d'autres informations peuvent être stockés ou accessibles sur votre appareil aux fins indiquées ci-dessus.

  • Annonces et contenus personnalisés, mesure des annonces et des contenus, connaissance de l'audience et développement de produits

    Les annonces et le contenu peuvent être personnalisés en fonction d'un profil. D'autres données peuvent être ajoutées pour mieux personnaliser les annonces et le contenu. Les performances des publicités et du contenu peuvent être mesurées. Il est possible d'obtenir des informations sur le public qui a vu les publicités et le contenu. Ces données peuvent être utilisées pour développer ou améliorer l'expérience de l'utilisateur, les systèmes et les logiciels.

En cliquant sur "J'accepte", vous autorisez l'utilisation de cookies, des identifiants d'appareils, des balises web ou d'autres technologies similaires. Vos paramètres peuvent être modifiés dans le navigateur de votre appareil.

Dans certains cas, des intérêts légitimes peuvent être invoqués plutôt qu'un consentement. Vous pouvez en savoir plus à ce sujet dans notre Politique de confidentialité et de cookies.